GAF01 EDDW-EDDH

Flight info

Callsign GAF01
Flight time 0h 30m
Altitude 9000
Route GESTO8M GESTO DCT NOLGO NOLGO6A
Aircraft A319/M-SDE3FGHIRWY/LB1

Departure

Time 2026-04-21 19:36
Airport Bremen Airport (EDDW)

Arrival

Time 2026-04-21 20:06
Airport Hamburg Helmut Schmidt Airport (EDDH)
Time Latitude Longitude Altitude Speed Heading
2026-04-21 19:22 53.05250 8.78236 22 ft 0 kts 11°
2026-04-21 19:28 53.05248 8.78235 22 ft 2 kts 10°
2026-04-21 19:28 53.05222 8.78232 22 ft 4 kts 351°
2026-04-21 19:29 53.05197 8.78246 23 ft 4 kts 326°
2026-04-21 19:29 53.05179 8.78276 22 ft 4 kts 287°
2026-04-21 19:29 53.05177 8.78284 22 ft 0 kts 281°
2026-04-21 19:31 53.05177 8.78280 22 ft 3 kts 281°
2026-04-21 19:31 53.05192 8.78141 22 ft 16 kts 274°
2026-04-21 19:32 53.05148 8.77951 23 ft 20 kts 233°
2026-04-21 19:32 53.05050 8.77772 22 ft 22 kts 227°
2026-04-21 19:32 53.04939 8.77574 22 ft 22 kts 224°
2026-04-21 19:32 53.04843 8.77477 22 ft 17 kts 200°
2026-04-21 19:33 53.04789 8.77454 23 ft 12 kts 189°
2026-04-21 19:33 53.04756 8.77451 23 ft 0 kts 180°
2026-04-21 19:35 53.04729 8.77451 23 ft 11 kts 178°
2026-04-21 19:35 53.04660 8.77600 21 ft 0 kts 88°
2026-04-21 19:36 53.04661 8.77643 21 ft 22 kts 88°
2026-04-21 19:36 53.04678 8.78307 22 ft 91 kts 88°
2026-04-21 19:36 53.04712 8.79720 24 ft 152 kts 88°
2026-04-21 19:36 53.04724 8.81523 715 ft 151 kts 87°
2026-04-21 19:37 53.04749 8.83269 1524 ft 150 kts 86°
2026-04-21 19:37 53.04791 8.85057 2034 ft 164 kts 86°
2026-04-21 19:37 53.04843 8.87056 2434 ft 184 kts 86°
2026-04-21 19:37 53.04906 8.89338 2795 ft 211 kts 87°
2026-04-21 19:38 53.05002 8.91895 3368 ft 234 kts 82°
2026-04-21 19:38 53.05422 8.94602 4150 ft 247 kts 72°
2026-04-21 19:38 53.05798 8.96392 4849 ft 250 kts 70°
2026-04-21 19:38 53.06630 9.00030 6259 ft 253 kts 69°
2026-04-21 19:39 53.07246 9.02789 7138 ft 258 kts 72°
2026-04-21 19:39 53.07640 9.05706 7308 ft 258 kts 78°
2026-04-21 19:39 53.08273 9.08459 7346 ft 256 kts 57°
2026-04-21 19:39 53.09499 9.10609 7346 ft 257 kts 43°
2026-04-21 19:40 53.10836 9.12587 7352 ft 257 kts 43°
2026-04-21 19:40 53.12172 9.14565 7347 ft 257 kts 43°
2026-04-21 19:40 53.13509 9.16543 7347 ft 257 kts 43°
2026-04-21 19:40 53.14849 9.18532 7348 ft 257 kts 43°
2026-04-21 19:41 53.16182 9.20518 7344 ft 258 kts 43°
2026-04-21 19:41 53.17518 9.22512 7342 ft 258 kts 43°
2026-04-21 19:41 53.18850 9.24504 7345 ft 258 kts 43°
2026-04-21 19:41 53.20184 9.26500 7346 ft 258 kts 43°
2026-04-21 19:42 53.21516 9.28502 7345 ft 258 kts 44°
2026-04-21 19:42 53.22847 9.30501 7346 ft 258 kts 43°
2026-04-21 19:42 53.24178 9.32500 7267 ft 256 kts 44°
2026-04-21 19:42 53.25499 9.34486 6934 ft 255 kts 43°
2026-04-21 19:43 53.26816 9.36464 6587 ft 254 kts 43°
2026-04-21 19:43 53.28129 9.38436 6234 ft 253 kts 43°
2026-04-21 19:43 53.29456 9.40431 5877 ft 252 kts 43°
2026-04-21 19:43 53.30741 9.42371 5535 ft 252 kts 44°
2026-04-21 19:44 53.32036 9.44331 5197 ft 251 kts 44°
2026-04-21 19:44 53.33330 9.46290 4836 ft 250 kts 44°
2026-04-21 19:44 53.34639 9.48265 4472 ft 250 kts 43°
2026-04-21 19:44 53.35932 9.50213 4121 ft 250 kts 43°
2026-04-21 19:45 53.37219 9.52151 3986 ft 249 kts 43°
2026-04-21 19:45 53.38505 9.54097 3991 ft 250 kts 44°
2026-04-21 19:45 53.39795 9.56052 3997 ft 250 kts 44°
2026-04-21 19:45 53.41087 9.58014 3992 ft 250 kts 44°
2026-04-21 19:46 53.42374 9.59972 3892 ft 247 kts 44°
2026-04-21 19:46 53.43622 9.61870 3760 ft 238 kts 44°
2026-04-21 19:46 53.44824 9.63698 3630 ft 228 kts 44°
2026-04-21 19:46 53.45979 9.65452 3506 ft 219 kts 43°
2026-04-21 19:47 53.47110 9.67087 3370 ft 210 kts 45°
2026-04-21 19:47 53.48095 9.68833 3238 ft 202 kts 50°
2026-04-21 19:47 53.48983 9.70568 3121 ft 190 kts 51°
2026-04-21 19:47 53.49799 9.72195 3055 ft 175 kts 52°
2026-04-21 19:48 53.50561 9.73719 3006 ft 167 kts 52°
2026-04-21 19:48 53.51303 9.75205 3009 ft 165 kts 52°
2026-04-21 19:48 53.52037 9.76676 3010 ft 164 kts 52°
2026-04-21 19:48 53.52767 9.78140 2910 ft 165 kts 52°
2026-04-21 19:49 53.53506 9.79621 2723 ft 163 kts 52°
2026-04-21 19:49 53.54231 9.81076 2514 ft 162 kts 52°
2026-04-21 19:49 53.54941 9.82501 2298 ft 155 kts 52°
2026-04-21 19:49 53.55623 9.83866 2079 ft 149 kts 52°
2026-04-21 19:50 53.56056 9.84729 1932 ft 141 kts 52°
2026-04-21 19:50 53.56871 9.86362 1660 ft 135 kts 52°
2026-04-21 19:50 53.57466 9.87565 1499 ft 133 kts 53°
2026-04-21 19:50 53.58055 9.88762 1318 ft 133 kts 52°
2026-04-21 19:51 53.58646 9.89956 1144 ft 133 kts 52°
2026-04-21 19:51 53.59235 9.91143 937 ft 134 kts 51°
2026-04-21 19:51 53.59833 9.92343 756 ft 133 kts 50°
2026-04-21 19:51 53.60429 9.93549 589 ft 135 kts 50°
2026-04-21 19:52 53.61032 9.94768 387 ft 137 kts 50°
2026-04-21 19:52 53.61640 9.95999 197 ft 136 kts 50°
2026-04-21 19:52 53.62229 9.97189 56 ft 124 kts 50°
2026-04-21 19:52 53.62580 9.97904 43 ft 116 kts 50°
2026-04-21 19:53 53.63158 9.99069 128 ft 146 kts 50°
2026-04-21 19:53 53.64080 10.00935 927 ft 168 kts 50°
2026-04-21 19:53 53.64608 10.02001 1176 ft 183 kts 51°
2026-04-21 19:53 53.65464 10.03717 1836 ft 194 kts 51°
2026-04-21 19:54 53.66344 10.05450 2764 ft 196 kts 51°
2026-04-21 19:54 53.67247 10.07202 3628 ft 202 kts 50°
2026-04-21 19:54 53.68032 10.09148 3926 ft 202 kts 72°
2026-04-21 19:54 53.68148 10.10693 3981 ft 202 kts 95°
2026-04-21 19:56 53.67831 10.12026 4342 ft 197 kts 124°
2026-04-21 19:56 53.66730 10.13334 5247 ft 193 kts 157°
2026-04-21 19:56 53.65315 10.13554 5305 ft 221 kts 180°
2026-04-21 19:56 53.63770 10.13262 5038 ft 224 kts 184°
2026-04-21 19:57 53.62225 10.12897 4599 ft 224 kts 184°
2026-04-21 19:57 53.60681 10.12526 4322 ft 223 kts 184°
2026-04-21 19:57 53.59153 10.12161 4079 ft 221 kts 184°
2026-04-21 19:57 53.57583 10.11797 4000 ft 232 kts 184°
2026-04-21 19:58 53.55949 10.11400 4007 ft 236 kts 189°
2026-04-21 19:58 53.54483 10.10141 4008 ft 242 kts 222°
2026-04-21 19:58 53.53407 10.07957 4011 ft 243 kts 233°
2026-04-21 19:58 53.52425 10.05646 4009 ft 243 kts 234°
2026-04-21 19:59 53.51464 10.03339 3724 ft 240 kts 234°
2026-04-21 19:59 53.50513 10.01047 3249 ft 238 kts 234°
2026-04-21 19:59 53.49568 9.98759 3013 ft 237 kts 234°
2026-04-21 19:59 53.48654 9.96537 3008 ft 226 kts 234°
2026-04-21 20:00 53.47772 9.94392 3008 ft 223 kts 234°
2026-04-21 20:00 53.46895 9.92246 3013 ft 223 kts 235°
2026-04-21 20:00 53.46338 9.89858 2915 ft 220 kts 266°
2026-04-21 20:00 53.46627 9.87386 2601 ft 216 kts 298°
2026-04-21 20:01 53.47328 9.85223 2499 ft 207 kts 304°
2026-04-21 20:01 53.48040 9.83195 2501 ft 198 kts 304°
2026-04-21 20:01 53.48730 9.81241 2347 ft 192 kts 304°
2026-04-21 20:01 53.49422 9.79325 2072 ft 190 kts 310°
2026-04-21 20:02 53.50431 9.78029 2040 ft 181 kts 344°
2026-04-21 20:02 53.51628 9.77740 2027 ft 170 kts 11°
2026-04-21 20:02 53.52706 9.78355 2013 ft 161 kts 36°
2026-04-21 20:02 53.53505 9.79627 2012 ft 158 kts 53°
2026-04-21 20:03 53.54213 9.81048 2008 ft 158 kts 52°
2026-04-21 20:03 53.54922 9.82469 2010 ft 158 kts 52°
2026-04-21 20:03 53.55588 9.83804 1972 ft 142 kts 53°
2026-04-21 20:03 53.56203 9.85040 1847 ft 135 kts 52°
2026-04-21 20:04 53.56810 9.86262 1689 ft 136 kts 52°
2026-04-21 20:04 53.57405 9.87457 1510 ft 132 kts 52°
2026-04-21 20:04 53.58001 9.88654 1343 ft 134 kts 51°
2026-04-21 20:04 53.58610 9.89881 1142 ft 134 kts 52°
2026-04-21 20:05 53.59203 9.91078 942 ft 132 kts 51°
2026-04-21 20:05 53.59790 9.92279 748 ft 133 kts 51°
2026-04-21 20:05 53.60382 9.93459 599 ft 132 kts 50°
2026-04-21 20:05 53.60974 9.94656 401 ft 135 kts 50°
2026-04-21 20:06 53.61577 9.95874 218 ft 136 kts 50°
2026-04-21 20:06 53.62181 9.97090 55 ft 132 kts 50°
2026-04-21 20:06 53.62699 9.98145 42 ft 97 kts 50°
2026-04-21 20:06 53.63019 9.98796 45 ft 47 kts 51°
2026-04-21 20:07 53.63092 9.99072 46 ft 17 kts 87°
2026-04-21 20:07 53.63083 9.99228 47 ft 6 kts 108°
2026-04-21 20:07 53.63043 9.99260 47 ft 8 kts 194°
2026-04-21 20:07 53.62991 9.99157 47 ft 17 kts 231°
2026-04-21 20:08 53.62908 9.98993 47 ft 20 kts 230°
2026-04-21 20:08 53.62813 9.98947 47 ft 15 kts 154°
2026-04-21 20:08 53.62814 9.99033 44 ft 10 kts 63°
2026-04-21 20:08 53.62839 9.99115 47 ft 0 kts 63°